| time (UTC) | temp F | wind direction | speed knots | gust knots | rain 1hr in | rain 24hr in | rain mn in | humidity % | barometer mb |
| 20260503072903 | 75 | 327 | 0.0 | 1.7 | 0.00 | 0.00 | 0.00 | 87 | 1013.4 |
| 20260503071904 | 75 | 336 | 2.6 | 6.1 | 0.00 | 0.00 | 0.00 | 85 | 1013.7 |
| 20260503071403 | 76 | 283 | 0.9 | 7.8 | 0.00 | 0.00 | 0.00 | 85 | 1013.7 |
| 20260503070904 | 76 | 297 | 5.2 | 7.8 | 0.00 | 0.00 | 0.00 | 85 | 1013.7 |
| 20260503070404 | 76 | 304 | 5.2 | 6.1 | 0.00 | 0.00 | 0.00 | 86 | 1013.7 |
| 20260503054404 | 76 | 291 | 0.0 | 0.0 | 0.00 | 0.00 | 0.00 | 85 | 1013.1 |
| 20260503053904 | 76 | 245 | 0.9 | 4.3 | 0.00 | 0.00 | 0.00 | 85 | 1013.1 |
| 20260503053405 | 77 | 196 | 1.7 | 5.2 | 0.00 | 0.00 | 0.00 | 85 | 1013.1 |
| 20260503052905 | 77 | 214 | 0.0 | 0.9 | 0.00 | 0.00 | 0.00 | 85 | 1013.7 |
| 20260503052405 | 77 | 253 | 0.0 | 0.0 | 0.00 | 0.00 | 0.00 | 85 | 1013.7 |
| 20260503051904 | 77 | 259 | 0.0 | 0.0 | 0.00 | 0.00 | 0.00 | 85 | 1014.0 |
| 20260503051405 | 77 | 210 | 0.0 | 0.9 | 0.00 | 0.00 | 0.00 | 84 | 1014.0 |
| 20260503050405 | 77 | 238 | 0.0 | 0.9 | 0.00 | 0.00 | 0.00 | 84 | 1014.2 |
| 20260503045904 | 77 | 265 | 0.0 | 0.0 | 0.00 | 0.00 | 0.00 | 84 | 1014.2 |
| 20260503045404 | 77 | 202 | 0.0 | 0.9 | 0.00 | 0.00 | 0.00 | 83 | 1014.2 |
| 20260503044905 | 77 | 267 | 0.0 | 0.9 | 0.00 | 0.00 | 0.00 | 82 | 1014.2 |
| 20260503044405 | 77 | 211 | 0.0 | 0.9 | 0.00 | 0.00 | 0.00 | 82 | 1014.3 |
| 20260503043904 | 78 | 196 | 0.0 | 0.9 | 0.00 | 0.00 | 0.00 | 82 | 1014.3 |
| 20260503043405 | 78 | 240 | 0.0 | 0.0 | 0.00 | 0.00 | 0.00 | 82 | 1014.1 |
| 20260503042905 | 78 | 260 | 0.9 | 2.6 | 0.00 | 0.00 | 0.00 | 82 | 1014.1 |
| 20260503042405 | 78 | 246 | 0.0 | 0.0 | 0.00 | 0.00 | 0.00 | 82 | 1014.1 |
| 20260503041904 | 78 | 205 | 0.0 | 0.0 | 0.00 | 0.00 | 0.00 | 82 | 1014.2 |
| 20260503041404 | 78 | 250 | 0.0 | 0.0 | 0.00 | 0.00 | 0.00 | 82 | 1014.2 |
| 20260503040405 | 78 | 300 | 0.0 | 0.9 | 0.00 | 0.00 | 0.00 | 82 | 1014.3 |
| 20260503035905 | 78 | 270 | 0.0 | 0.9 | 0.00 | 0.00 | 0.00 | 82 | 1014.3 |
| 20260503035405 | 78 | 244 | 0.0 | 0.0 | 0.00 | 0.00 | 0.00 | 83 | 1014.3 |
| 20260503034905 | 78 | 301 | 0.0 | 0.0 | 0.00 | 0.00 | 0.00 | 83 | 1014.3 |
| 20260503034405 | 78 | 270 | 0.0 | 0.0 | 0.00 | 0.00 | 0.00 | 83 | 1013.9 |
| 20260503033905 | 78 | 270 | 0.0 | 0.0 | 0.00 | 0.00 | 0.00 | 82 | 1013.9 |
| 20260503032404 | 78 | 287 | 0.0 | 0.0 | 0.00 | 0.00 | 0.00 | 82 | 1013.9 |
| 20260503031905 | 78 | 249 | 0.0 | 0.0 | 0.00 | 0.00 | 0.00 | 81 | 1013.8 |
| 20260503031404 | 78 | 283 | 0.0 | 0.0 | 0.00 | 0.00 | 0.00 | 81 | 1013.8 |
| 20260503030905 | 78 | 163 | 0.0 | 0.0 | 0.00 | 0.00 | 0.00 | 81 | 1013.9 |
| 20260503030405 | 78 | 271 | 0.0 | 0.0 | 0.00 | 0.00 | 0.00 | 81 | 1013.9 |
| 20260503025904 | 78 | 281 | 0.0 | 0.0 | 0.00 | 0.00 | 0.00 | 80 | 1013.9 |
| 20260503025405 | 79 | 330 | 0.0 | 0.0 | 0.00 | 0.00 | 0.00 | 80 | 1013.8 |
| 20260503023905 | 79 | 314 | 0.0 | 0.0 | 0.00 | 0.00 | 0.00 | 79 | 1013.9 |
| 20260503023405 | 79 | 164 | 0.0 | 0.0 | 0.00 | 0.00 | 0.00 | 79 | 1013.8 |
| 20260503022905 | 79 | 296 | 0.0 | 1.7 | 0.00 | 0.00 | 0.00 | 78 | 1013.8 |
| 20260503022405 | 80 | 272 | 0.0 | 5.2 | 0.00 | 0.00 | 0.00 | 78 | 1013.8 |
| 20260503021905 | 80 | 292 | 5.2 | 6.1 | 0.00 | 0.00 | 0.00 | 77 | 1013.8 |
| 20260503021405 | 80 | 306 | 2.6 | 4.3 | 0.00 | 0.00 | 0.00 | 76 | 1013.8 |
| 20260503020905 | 80 | 262 | 5.2 | 7.8 | 0.00 | 0.00 | 0.00 | 76 | 1013.6 |
| 20260503020404 | 81 | 289 | 6.1 | 8.7 | 0.00 | 0.00 | 0.00 | 74 | 1013.6 |
| 20260503015905 | 82 | 291 | 5.2 | 7.0 | 0.00 | 0.00 | 0.00 | 73 | 1013.6 |
| 20260503015405 | 82 | 270 | 2.6 | 7.8 | 0.00 | 0.00 | 0.00 | 72 | 1013.3 |
| 20260503014904 | 82 | 264 | 2.6 | 7.8 | 0.00 | 0.00 | 0.00 | 71 | 1013.3 |
| 20260503013905 | 83 | 239 | 3.5 | 5.2 | 0.00 | 0.00 | 0.00 | 70 | 1013.3 |
| 20260503013405 | 83 | 258 | 1.7 | 6.1 | 0.00 | 0.00 | 0.00 | 70 | 1013.1 |
| 20260503012905 | 83 | 285 | 2.6 | 7.0 | 0.00 | 0.00 | 0.00 | 69 | 1013.1 |
| 20260503012404 | 83 | 275 | 5.2 | 7.8 | 0.00 | 0.00 | 0.00 | 68 | 1013.1 |
| 20260503011905 | 83 | 218 | 4.3 | 5.2 | 0.00 | 0.00 | 0.00 | 68 | 1012.8 |
| 20260503011405 | 83 | 303 | 5.2 | 7.8 | 0.00 | 0.00 | 0.00 | 67 | 1012.8 |
| 20260503010904 | 84 | 151 | 4.3 | 6.1 | 0.00 | 0.00 | 0.00 | 66 | 1012.7 |
| 20260503010405 | 84 | 243 | 3.5 | 7.0 | 0.00 | 0.00 | 0.00 | 65 | 1012.7 |
| 20260503005905 | 84 | 251 | 3.5 | 7.0 | 0.00 | 0.00 | 0.00 | 65 | 1012.7 |
| 20260503005405 | 84 | 205 | 5.2 | 6.1 | 0.00 | 0.00 | 0.00 | 64 | 1012.6 |
| 20260503004404 | 85 | 202 | 3.5 | 5.2 | 0.00 | 0.00 | 0.00 | 62 | 1012.4 |
| 20260503003904 | 85 | 220 | 3.5 | 5.2 | 0.00 | 0.00 | 0.00 | 61 | 1012.4 |
| 20260503003405 | 85 | 249 | 3.5 | 5.2 | 0.00 | 0.00 | 0.00 | 60 | 1012.4 |
| 20260503002905 | 85 | 270 | 0.9 | 7.8 | 0.00 | 0.00 | 0.00 | 60 | 1012.4 |
| 20260503002404 | 86 | 221 | 4.3 | 7.8 | 0.00 | 0.00 | 0.00 | 59 | 1012.4 |
| 20260503001905 | 86 | 267 | 4.3 | 8.7 | 0.00 | 0.00 | 0.00 | 58 | 1012.2 |
| 20260503001405 | 86 | 180 | 4.3 | 7.8 | 0.00 | 0.00 | 0.00 | 57 | 1012.2 |
| 20260503000905 | 87 | 252 | 1.7 | 10.4 | 0.00 | 0.00 | 0.00 | 56 | 1011.8 |
| 20260503000404 | 87 | 345 | 1.7 | 7.8 | 0.00 | 0.00 | 0.00 | 55 | 1011.8 |
| 20260502235905 | 87 | 263 | 1.7 | 5.2 | 0.00 | 0.00 | 0.00 | 55 | 1011.8 |
| 20260502234904 | 88 | 248 | 0.9 | 6.1 | 0.00 | 0.00 | 0.00 | 53 | 1011.8 |
| 20260502234404 | 88 | 282 | 0.9 | 7.0 | 0.00 | 0.00 | 0.00 | 53 | 1011.5 |
| 20260502233906 | 88 | 251 | 0.9 | 5.2 | 0.00 | 0.00 | 0.00 | 52 | 1011.5 |
| 20260502233404 | 89 | 265 | 0.0 | 5.2 | 0.00 | 0.00 | 0.00 | 51 | 1011.4 |
| 20260502232905 | 89 | 248 | 2.6 | 5.2 | 0.00 | 0.00 | 0.00 | 50 | 1011.3 |
| 20260502232405 | 89 | 224 | 0.9 | 5.2 | 0.00 | 0.00 | 0.00 | 50 | 1011.3 |
| 20260502231905 | 90 | 270 | 0.9 | 4.3 | 0.00 | 0.00 | 0.00 | 50 | 1011.1 |
| 20260502231404 | 90 | 197 | 1.7 | 7.0 | 0.00 | 0.00 | 0.00 | 49 | 1011.1 |
| 20260502230904 | 90 | 216 | 0.9 | 6.1 | 0.00 | 0.00 | 0.00 | 49 | 1010.9 |
| 20260502230404 | 90 | 288 | 0.9 | 5.2 | 0.00 | 0.00 | 0.00 | 49 | 1010.9 |
| 20260502225404 | 91 | 267 | 1.7 | 5.2 | 0.00 | 0.00 | 0.00 | 48 | 1010.8 |
| 20260502224904 | 91 | 41 | 0.0 | 5.2 | 0.00 | 0.00 | 0.00 | 47 | 1010.8 |
| 20260502223904 | 91 | 244 | 2.6 | 7.0 | 0.00 | 0.00 | 0.00 | 46 | 1010.7 |
| 20260502223405 | 91 | 251 | 1.7 | 6.1 | 0.00 | 0.00 | 0.00 | 46 | 1010.7 |
| 20260502222905 | 92 | 222 | 2.6 | 7.0 | 0.00 | 0.00 | 0.00 | 46 | 1010.6 |
| 20260502221905 | 92 | 225 | 2.6 | 7.8 | 0.00 | 0.00 | 0.00 | 46 | 1010.5 |
| 20260502221404 | 92 | 245 | 1.7 | 7.8 | 0.00 | 0.00 | 0.00 | 45 | 1010.5 |
| 20260502220904 | 93 | 223 | 0.9 | 4.3 | 0.00 | 0.00 | 0.00 | 45 | 1010.6 |
| 20260502220405 | 94 | 276 | 6.1 | 11.3 | 0.00 | 0.00 | 0.00 | 43 | 1010.6 |
| 20260502215904 | 95 | 232 | 2.6 | 10.4 | 0.00 | 0.00 | 0.00 | 43 | 1010.6 |
| 20260502215404 | 95 | 218 | 4.3 | 10.4 | 0.00 | 0.00 | 0.00 | 43 | 1010.5 |
| 20260502213905 | 95 | 219 | 4.3 | 8.7 | 0.00 | 0.00 | 0.00 | 43 | 1010.4 |
| 20260502213404 | 95 | 307 | 4.3 | 6.1 | 0.00 | 0.00 | 0.00 | 42 | 1010.5 |
| 20260502212904 | 95 | 264 | 4.3 | 8.7 | 0.00 | 0.00 | 0.00 | 42 | 1010.5 |
| 20260502212405 | 95 | 248 | 7.0 | 11.3 | 0.00 | 0.00 | 0.00 | 42 | 1010.5 |
| 20260502211905 | 95 | 279 | 5.2 | 11.3 | 0.00 | 0.00 | 0.00 | 41 | 1010.4 |
| 20260502211405 | 96 | 248 | 4.3 | 10.4 | 0.00 | 0.00 | 0.00 | 41 | 1010.4 |
| 20260502210905 | 97 | 305 | 5.2 | 8.7 | 0.00 | 0.00 | 0.00 | 41 | 1010.3 |
| 20260502210404 | 96 | 242 | 5.2 | 11.3 | 0.00 | 0.00 | 0.00 | 41 | 1010.3 |
| 20260502204904 | 96 | 283 | 6.1 | 13.0 | 0.00 | 0.00 | 0.00 | 40 | 1010.4 |
| 20260502204404 | 96 | 323 | 5.2 | 13.0 | 0.00 | 0.00 | 0.00 | 41 | 1010.3 |
| 20260502203904 | 96 | 277 | 4.3 | 10.4 | 0.00 | 0.00 | 0.00 | 41 | 1010.3 |
| 20260502203404 | 96 | 291 | 7.0 | 8.7 | 0.00 | 0.00 | 0.00 | 40 | 1010.4 |
| 20260502202905 | 97 | 282 | 10.4 | 15.6 | 0.00 | 0.00 | 0.00 | 40 | 1010.4 |
| 20260502202404 | 96 | 270 | 6.1 | 10.4 | 0.00 | 0.00 | 0.00 | 41 | 1010.4 |
| 20260502201404 | 97 | 282 | 8.7 | 12.2 | 0.00 | 0.00 | 0.00 | 42 | 1010.6 |
| 20260502200904 | 97 | 272 | 6.1 | 12.2 | 0.00 | 0.00 | 0.00 | 40 | 1010.6 |
| 20260502195905 | 96 | 236 | 6.1 | 13.9 | 0.00 | 0.00 | 0.00 | 43 | 1010.6 |
| 20260502195405 | 97 | 237 | 4.3 | 8.7 | 0.00 | 0.00 | 0.00 | 43 | 1010.7 |
| 20260502194904 | 96 | 184 | 7.8 | 13.9 | 0.00 | 0.00 | 0.00 | 42 | 1010.7 |
| 20260502194405 | 96 | 281 | 7.0 | 11.3 | 0.00 | 0.00 | 0.00 | 44 | 1010.7 |
| 20260502193904 | 96 | 248 | 7.8 | 15.6 | 0.00 | 0.00 | 0.00 | 44 | 1010.7 |
| 20260502192904 | 98 | 284 | 10.4 | 13.0 | 0.00 | 0.00 | 0.00 | 42 | 1010.8 |
| 20260502192404 | 97 | 90 | 5.2 | 12.2 | 0.00 | 0.00 | 0.00 | 45 | 1010.8 |
| 20260502191904 | 97 | 270 | 8.7 | 14.8 | 0.00 | 0.00 | 0.00 | 43 | 1010.8 |
| 20260502191404 | 97 | 222 | 6.1 | 13.0 | 0.00 | 0.00 | 0.00 | 43 | 1010.8 |
| 20260502185904 | 97 | 211 | 8.7 | 12.2 | 0.00 | 0.00 | 0.00 | 45 | 1010.7 |
| 20260502185404 | 97 | 183 | 7.8 | 12.2 | 0.00 | 0.00 | 0.00 | 46 | 1010.8 |
| 20260502184904 | 96 | 262 | 9.6 | 12.2 | 0.00 | 0.00 | 0.00 | 46 | 1010.8 |
| 20260502184404 | 97 | 270 | 8.7 | 13.9 | 0.00 | 0.00 | 0.00 | 46 | 1010.9 |
| 20260502183905 | 96 | 221 | 5.2 | 15.6 | 0.00 | 0.00 | 0.00 | 47 | 1010.9 |
| 20260502183404 | 95 | 34 | 10.4 | 12.2 | 0.00 | 0.00 | 0.00 | 49 | 1011.0 |
| 20260502182904 | 95 | 254 | 7.8 | 13.9 | 0.00 | 0.00 | 0.00 | 49 | 1011.1 |
| 20260502181904 | 97 | 225 | 8.7 | 17.4 | 0.00 | 0.00 | 0.00 | 47 | 1011.2 |
| 20260502180905 | 96 | 238 | 6.1 | 11.3 | 0.00 | 0.00 | 0.00 | 50 | 1011.3 |
| 20260502180404 | 96 | 275 | 7.0 | 11.3 | 0.00 | 0.00 | 0.00 | 50 | 1011.3 |
| 20260502170404 | 93 | 234 | 5.2 | 8.7 | 0.00 | 0.00 | 0.00 | 59 | 1011.6 |
| 20260502163404 | 94 | 14 | 5.2 | 11.3 | 0.00 | 0.00 | 0.00 | 58 | 1011.9 |
| 20260502162904 | 92 | 242 | 8.7 | 11.3 | 0.00 | 0.00 | 0.00 | 59 | 1012.1 |
| 20260502162404 | 92 | 206 | 7.8 | 11.3 | 0.00 | 0.00 | 0.00 | 59 | 1012.1 |
| 20260502160904 | 92 | 229 | 5.2 | 15.6 | 0.00 | 0.00 | 0.00 | 58 | 1012.3 |
| 20260502160404 | 93 | 200 | 7.8 | 11.3 | 0.00 | 0.00 | 0.00 | 57 | 1012.3 |
| 20260502151404 | 91 | 232 | 5.2 | 8.7 | 0.00 | 0.00 | 0.00 | 62 | 1012.4 |
| 20260502150904 | 90 | 220 | 6.1 | 10.4 | 0.00 | 0.00 | 0.00 | 62 | 1012.3 |
| 20260502150404 | 90 | 202 | 5.2 | 7.0 | 0.00 | 0.00 | 0.00 | 63 | 1012.3 |
| 20260502123404 | 80 | 142 | 0.0 | 0.9 | 0.00 | 0.00 | 0.00 | 88 | 1012.2 |
| 20260502122904 | 80 | 137 | 0.0 | 0.0 | 0.00 | 0.00 | 0.00 | 88 | 1012.2 |
| 20260502122404 | 80 | 190 | 0.0 | 0.0 | 0.00 | 0.00 | 0.00 | 88 | 1012.2 |
| 20260502121904 | 80 | 196 | 0.0 | 0.0 | 0.00 | 0.00 | 0.00 | 88 | 1012.1 |
| 20260502121404 | 79 | 159 | 0.0 | 0.0 | 0.00 | 0.00 | 0.00 | 88 | 1012.1 |
| 20260502120904 | 78 | 243 | 0.0 | 0.0 | 0.00 | 0.00 | 0.00 | 90 | 1012.2 |
| 20260502120404 | 78 | 184 | 0.0 | 0.0 | 0.00 | 0.00 | 0.00 | 90 | 1012.2 |
| 20260502115904 | 77 | 189 | 0.0 | 0.0 | 0.00 | 0.00 | 0.00 | 91 | 1012.2 |
| 20260502114404 | 76 | 180 | 0.0 | 0.0 | 0.00 | 0.00 | 0.00 | 93 | 1012.2 |
| 20260502113904 | 76 | 192 | 0.0 | 0.0 | 0.00 | 0.00 | 0.00 | 93 | 1012.2 |
| 20260502113403 | 75 | 193 | 0.0 | 0.0 | 0.00 | 0.00 | 0.00 | 93 | 1012.3 |
| 20260502112904 | 75 | 177 | 0.0 | 0.0 | 0.00 | 0.00 | 0.00 | 94 | 1012.4 |
| 20260502111904 | 74 | 180 | 0.0 | 0.0 | 0.00 | 0.00 | 0.00 | 98 | 1012.4 |
| 20260502110903 | 73 | 165 | 0.0 | 0.0 | 0.00 | 0.00 | 0.00 | 99 | 1012.3 |
| 20260502105904 | 72 | 202 | 0.0 | 0.0 | 0.00 | 0.00 | 0.00 | 99 | 1012.3 |
| 20260502105404 | 72 | 202 | 0.0 | 0.0 | 0.00 | 0.00 | 0.00 | 99 | 1012.2 |
| 20260502104904 | 72 | 167 | 0.0 | 0.0 | 0.00 | 0.00 | 0.00 | 99 | 1012.2 |
| 20260502104404 | 72 | 190 | 0.0 | 0.0 | 0.00 | 0.00 | 0.00 | 99 | 1012.1 |
| 20260502103404 | 72 | 171 | 0.0 | 0.0 | 0.00 | 0.00 | 0.00 | 99 | 1012.1 |
| 20260502102903 | 72 | 199 | 0.0 | 0.0 | 0.00 | 0.00 | 0.00 | 99 | 1012.1 |
| 20260502102404 | 72 | 180 | 0.0 | 0.0 | 0.00 | 0.00 | 0.00 | 99 | 1012.1 |
| 20260502101904 | 72 | 180 | 0.0 | 0.0 | 0.00 | 0.00 | 0.00 | 99 | 1012.1 |
| 20260502101404 | 72 | 191 | 0.0 | 0.0 | 0.00 | 0.00 | 0.00 | 99 | 1012.1 |
| 20260502100403 | 72 | 202 | 0.0 | 0.0 | 0.00 | 0.00 | 0.00 | 99 | 1012.1 |
| 20260502091403 | 72 | 158 | 0.0 | 0.0 | 0.00 | 0.00 | 0.00 | 98 | 1012.3 |
| 20260502090904 | 72 | 137 | 0.0 | 0.0 | 0.00 | 0.00 | 0.00 | 98 | 1012.1 |
| 20260502090403 | 73 | 158 | 0.0 | 0.0 | 0.00 | 0.00 | 0.00 | 98 | 1012.1 |